Wind_Speed
10 6 7 1 2 5 3 4 2 2 3 1 11 2 7 5 2 3 11 19 24 22 19 17 17 14 13 12 10 10 10 10 13 14 15 16 15 14 15 15 14 14 14 15 15 14 14 14 15
12 4 4 1 4 4 3 7 7 6 6 13 9 5 5 4 4 11 14 17 24 23 20 19 18 15 14 13 12 12 11 10 12 12 14 14 13 14 15 15 15 14 14 14 14 13 13 14 14
6 2 2 3 3 3 3 2 4 8 3 5 5 5 3 2 8 15 12 27 25 22 20 19 18 15 15 14 13 11 11 11 12 13 13 13 13 15 15 15 14 15 14 14 13 12 11 12 13
1 4 2 4 2 0 6 5 8 7 9 6 7 6 4 2 15 13 27 29 25 22 20 18 17 16 15 13 13 11 12 12 13 13 14 14 14 15 15 15 15 13 13 12 12 12 13 13 13
4 2 4 3 3 3 2 2 4 7 4 10 5 5 5 10 8 26 29 27 25 23 20 19 18 17 16 14 12 11 12 12 14 14 14 14 14 14 14 14 13 13 11 11 11 11 11 12 12
3 2 4 2 3 4 2 3 5 11 10 10 9 7 3 14 26 27 27 26 25 24 21 19 17 16 15 14 12 11 12 12 13 14 13 13 14 14 13 14 13 12 11 10 10 10 11 10 11
4 1 2 1 4 4 7 4 6 10 12 9 12 4 2 9 19 24 23 24 25 22 20 19 18 15 15 14 14 12 13 12 12 13 12 14 13 14 13 12 12 12 10 9 9 10 10 9 10
1 3 2 2 3 2 9 7 6 14 6 13 10 5 5 13 20 21 22 24 23 22 20 19 17 15 15 15 14 13 13 11 12 12 12 12 12 13 11 11 10 10 9 9 9 10 9 8 8
1 3 2 5 7 7 11 6 10 3 12 5 8 7 14 25 23 21 20 20 21 20 20 19 18 16 16 17 15 13 12 12 12 12 13 13 13 12 11 10 9 8 8 8 9 9 9 9 7
1 3 6 4 1 5 12 13 12 7 12 3 8 14 26 27 24 22 21 19 21 21 22 21 19 19 19 19 16 15 12 13 13 13 13 13 12 11 11 9 8 8 7 7 7 8 9 12 10
5 4 2 2 7 6 14 12 4 15 4 13 19 21 23 23 21 20 21 25 31 25 23 22 22 21 21 20 18 16 15 14 14 13 13 13 11 9 10 9 10 8 7 7 8 8 8 10 10
3 4 2 3 6 6 12 9 8 10 5 13 17 23 25 17 20 21 20 21 21 25 25 24 23 22 21 20 19 18 17 17 17 15 13 12 9 8 9 9 10 9 9 10 10 8 8 7 8
3 5 1 6 2 6 10 9 9 8 10 9 18 19 19 17 20 20 21 24 25 24 25 26 25 22 22 21 20 20 20 20 18 16 13 12 11 9 9 10 10 10 10 9 11 10 9 9 12
1 5 6 6 6 6 10 4 5 4 9 9 15 17 16 16 21 19 20 21 25 28 28 28 27 23 22 22 22 21 21 20 18 16 14 11 13 10 11 11 11 12 10 11 10 13 12 12 10
3 5 4 3 4 2 7 4 5 11 12 11 9 11 15 16 20 23 29 28 33 30 29 30 29 26 24 22 21 20 19 19 18 17 14 14 14 15 13 12 13 11 12 14 13 15 13 12 11
3 4 3 2 3 2 2 3 5 11 13 10 10 8 12 14 20 25 28 30 33 29 32 31 29 28 26 23 21 18 18 18 18 19 17 18 16 19 15 14 12 11 13 18 18 16 15 13 12
1 3 3 3 8 3 2 3 8 11 12 12 11 10 9 8 11 23 30 34 34 35 34 33 32 30 29 24 21 19 19 19 18 20 19 19 18 16 16 15 12 14 13 13 19 18 17 15 14
6 4 4 5 7 4 3 4 14 16 14 15 13 11 9 9 9 22 28 35 35 35 34 32 35 33 28 24 22 16 16 24 20 21 20 19 18 18 18 14 12 10 16 14 16 18 18 15 16
7 6 8 4 7 6 7 5 16 17 14 13 14 12 11 11 11 23 29 33 33 34 34 33 32 32 29 25 25 19 14 18 24 23 22 22 20 19 18 17 14 10 14 14 16 15 18 20 14
2 8 4 2 8 5 5 11 13 18 22 18 16 15 14 10 7 15 24 29 34 39 40 37 34 32 31 30 25 23 15 17 19 25 27 24 23 21 21 19 19 16 14 14 14 15 13 15 15
2 7 5 3 5 4 4 5 7 12 10 12 14 13 12 10 5 7 19 28 29 32 40 41 35 32 30 27 21 17 17 15 20 23 26 26 24 23 21 20 19 20 21 21 19 19 18 16 13
2 4 4 9 5 5 7 5 6 11 16 12 16 15 9 10 2 6 11 16 26 35 38 40 36 33 30 27 24 21 21 19 21 24 26 25 27 26 23 22 22 20 19 21 21 20 18 18 18
7 3 2 6 7 5 3 2 6 10 9 16 16 15 10 12 17 19 17 24 28 26 36 38 35 35 34 31 29 25 23 25 20 20 25 27 25 28 26 24 22 22 21 20 21 19 20 20 21
4 5 7 5 4 1 5 6 3 8 22 13 7 11 14 16 18 16 25 28 26 28 30 33 34 36 35 34 32 30 27 27 26 24 23 26 28 28 29 27 25 23 24 24 23 23 22 22 22
7 7 4 5 5 6 6 3 7 4 6 11 13 12 14 14 13 16 12 18 23 25 25 28 33 35 33 35 35 33 31 30 32 31 27 25 24 28 29 29 29 27 25 23 25 25 25 25 25
3 7 5 3 3 4 4 1 5 5 8 10 6 5 8 10 18 14 10 10 21 22 26 29 31 29 21 19 25 29 33 33 35 34 31 29 24 24 23 21 18 12 8 19 23 24 29 28 27
3 3 4 7 3 3 3 4 5 7 7 5 6 6 9 10 14 6 8 20 26 27 28 28 13 10 6 5 13 25 37 37 38 34 32 30 26 24 18 19 19 14 15 33 29 29 27 28 26
5 7 3 3 3 1 3 3 6 1 4 3 3 7 7 8 11 7 11 14 24 28 26 21 19 22 28 35 38 37 35 42 40 39 35 31 27 25 25 22 22 24 20 15 27 21 24 23 28
2 1 6 5 5 5 4 6 7 15 14 14 10 8 8 8 6 3 9 17 26 30 28 25 24 20 26 35 44 38 36 39 39 40 36 34 30 25 25 23 24 23 23 21 13 10 16 20 25
4 7 6 5 4 1 3 5 2 11 14 14 11 9 4 2 3 5 9 17 22 29 30 25 24 24 30 24 43 43 31 36 38 35 32 29 30 31 28 28 26 23 17 10 8 7 15 25 26
Wind_Direction
182 206 210 264 56 63 14 0 32 351 83 275 147 162 122 34 143 183 151 157 160 158 156 155 156 153 149 148 134 126 121 105 110 112 114 109 109 108 104 111 114 112 110 103 103 106 107 106 107
181 129 153 195 85 75 355 353 64 60 100 103 92 80 48 62 57 112 125 159 160 157 157 156 157 153 149 142 132 119 114 113 112 115 112 115 116 110 110 112 115 107 110 106 105 105 107 109 112
178 157 90 81 69 70 123 13 81 99 136 60 103 64 76 98 103 139 157 161 161 160 160 156 154 154 149 144 135 125 122 119 117 115 118 123 122 114 113 117 113 114 113 113 108 109 109 108 109
68 26 28 75 97 194 148 165 119 108 74 51 118 65 64 271 145 157 158 162 163 161 160 153 155 152 153 145 139 126 124 128 126 124 125 125 121 121 119 119 122 118 119 116 118 120 117 107 101
47 61 41 73 44 60 110 179 101 133 60 93 90 110 72 131 152 151 159 165 163 160 159 155 156 155 154 151 141 132 131 133 130 128 125 121 126 125 125 124 121 120 120 121 125 131 118 97 90
60 87 41 108 88 87 177 144 154 110 111 98 101 105 95 147 148 153 159 166 163 158 157 156 160 157 157 153 147 139 138 136 131 129 131 126 130 134 127 126 126 125 126 132 131 130 118 96 86
69 44 147 183 108 126 148 183 147 134 128 123 132 79 69 135 147 151 164 164 162 160 157 158 160 160 160 160 159 153 143 146 140 140 136 139 140 137 134 132 129 132 131 134 134 132 124 114 109
185 2 36 236 173 120 158 148 144 141 142 129 141 153 163 166 153 154 160 164 163 163 164 162 160 163 167 169 168 160 149 148 143 144 142 148 148 145 145 142 137 139 140 145 142 137 142 125 114
215 72 297 197 171 161 154 142 160 92 138 161 204 144 151 152 147 142 146 162 168 172 170 168 164 165 163 167 164 162 158 154 151 150 149 152 157 153 154 154 149 153 150 151 147 141 145 147 141
24 114 218 195 98 148 162 161 143 136 157 152 96 110 140 153 154 155 160 171 178 180 178 176 169 162 159 159 163 164 164 167 164 167 168 165 161 155 154 159 168 162 159 154 142 142 159 163 173
193 219 208 59 100 61 138 152 113 147 205 166 152 150 160 164 168 168 174 181 182 182 180 181 176 172 168 168 169 170 172 173 173 174 172 170 165 167 163 160 157 165 160 152 146 155 156 171 185
224 283 332 117 131 126 148 154 142 172 193 154 153 157 164 169 174 176 182 181 185 185 184 184 185 182 180 180 182 180 179 178 177 174 173 178 180 179 174 169 174 168 158 154 164 172 190 193 217
269 150 282 24 345 136 132 147 152 188 154 135 151 162 172 178 181 188 190 182 184 186 188 187 186 185 182 185 184 183 179 178 175 179 187 201 204 189 182 185 181 187 182 175 185 196 215 237 237
266 144 148 46 3 102 115 115 104 136 150 159 150 176 180 184 185 189 189 193 187 188 188 187 187 184 183 187 185 186 185 185 185 192 196 199 203 194 196 196 198 208 215 213 207 214 227 239 240
143 91 35 41 30 74 102 29 164 153 164 176 178 165 190 196 190 187 189 192 193 194 189 192 191 190 192 193 194 194 198 201 201 202 203 209 210 210 213 213 220 225 231 232 227 234 232 231 231
110 87 148 226 105 350 42 222 154 161 167 189 202 203 185 199 201 190 190 193 194 195 197 196 198 198 201 201 204 204 209 212 214 211 213 213 214 213 220 222 229 231 245 227 227 228 230 238 235
13 207 218 163 192 130 87 169 175 175 177 188 209 215 219 225 193 202 189 194 194 199 198 200 203 206 206 210 212 219 221 225 219 215 219 219 219 218 224 227 233 232 239 231 222 221 231 231 238
209 206 218 197 193 153 203 223 169 184 186 194 206 217 223 229 210 198 186 192 195 200 201 204 206 208 210 207 209 210 215 226 226 218 221 225 229 230 225 228 224 242 228 227 216 227 226 241 247
208 197 182 199 187 127 213 212 185 187 200 204 207 217 225 228 217 192 187 189 190 198 198 197 199 201 193 193 195 201 213 214 218 224 225 229 228 230 227 238 235 244 228 234 236 238 236 244 260
272 164 198 124 153 105 206 230 196 189 203 205 204 213 224 227 193 176 185 181 188 194 198 197 200 197 201 207 210 211 211 216 222 227 231 229 230 232 235 237 236 237 238 236 233 236 234 244 251
12 165 195 138 106 35 89 330 198 222 210 216 221 218 216 218 227 209 185 183 189 192 196 201 204 204 206 209 213 208 215 222 225 230 228 232 233 233 235 235 232 241 244 248 248 249 248 250 254
68 193 142 136 103 190 153 242 245 214 214 213 217 213 195 127 115 228 224 204 194 196 202 206 206 206 206 207 209 213 213 217 226 229 232 235 235 235 238 241 241 246 251 250 249 250 250 251 254
212 172 98 140 140 109 202 68 262 165 226 221 215 207 177 166 189 212 204 205 201 199 201 208 213 212 212 209 212 218 228 229 235 240 242 244 242 237 243 248 248 247 252 257 257 257 253 255 256
91 66 50 58 124 88 226 159 268 173 215 221 212 192 181 182 201 215 202 198 203 200 199 205 210 217 216 215 215 217 226 231 234 240 247 248 245 244 245 250 254 258 254 254 257 258 257 255 259
71 56 351 3 10 224 319 100 235 278 204 202 198 186 182 187 178 200 203 197 182 194 192 202 210 218 221 219 218 222 229 232 231 240 247 250 251 247 249 250 254 262 268 273 273 268 262 259 257
104 136 150 229 216 265 330 215 342 301 155 173 166 125 138 187 213 199 207 190 187 169 201 205 209 212 223 230 246 249 241 239 237 239 244 252 257 260 257 259 263 264 312 331 307 297 275 263 256
194 171 188 104 5 75 283 308 67 34 58 94 114 147 195 214 236 139 185 204 182 168 186 195 178 162 151 349 301 275 262 257 251 250 253 254 256 264 259 252 254 251 312 310 302 299 280 273 267
143 162 70 17 144 148 320 270 174 179 155 117 173 205 232 261 270 156 193 173 151 165 173 160 167 208 214 254 276 279 283 261 259 257 254 257 261 266 270 255 255 265 272 285 303 298 268 268 268
56 348 54 118 128 152 153 259 197 171 183 179 204 209 207 228 269 305 150 144 144 156 162 182 184 182 196 216 253 263 275 268 257 255 261 264 264 263 265 262 263 263 270 286 275 295 266 263 268
187 176 141 122 223 156 146 268 281 169 175 167 177 190 179 320 14 64 102 136 152 161 182 197 171 199 197 197 221 245 267 264 265 262 266 269 266 265 265 266 262 259 265 259 240 220 282 259 259
Height
792 794 797 798 815 814 820 809 793 797 796 787 789 795 804 802 809 831 810 814 818 821 825 828 829 831 832 833 833 833 834 835 835 836 837 838 838 839 840 841 842 843 844 844 845 846 847 848 849
789 792 797 800 823 834 834 805 807 796 790 786 790 795 803 812 804 810 813 816 820 823 826 828 830 832 832 833 834 835 835 836 836 837 837 838 840 841 842 843 844 845 845 847 848 849 849 850 851
789 789 795 809 824 834 830 805 803 794 787 787 796 795 804 813 809 811 813 816 821 825 827 830 831 833 833 835 836 837 837 838 838 839 839 841 842 844 845 845 845 846 848 849 850 850 851 852 853
788 789 794 817 819 806 807 798 792 794 791 790 794 808 804 805 808 810 814 818 822 826 828 831 832 835 836 838 838 839 839 840 842 842 843 844 845 846 846 846 848 849 850 851 851 851 853 854 855
788 793 814 817 816 804 799 793 789 798 797 799 796 813 813 811 810 812 816 820 823 826 829 833 835 836 838 840 840 841 842 843 844 844 845 846 846 847 848 849 850 851 852 853 854 853 855 856 857
797 802 826 827 811 803 797 792 794 799 799 803 806 810 816 812 811 817 820 822 826 828 831 834 836 837 839 841 842 843 844 844 846 846 847 848 848 849 850 850 851 853 854 855 856 856 857 858 858
801 812 816 817 813 810 804 794 800 801 804 809 803 819 820 817 819 821 823 826 828 831 833 835 836 838 841 842 843 844 845 846 847 847 849 850 851 852 852 852 853 854 855 855 856 858 859 859 860
800 810 813 814 816 813 794 796 795 799 805 799 803 822 827 819 823 824 827 829 831 833 835 835 837 839 840 842 843 845 846 847 848 849 850 851 853 853 854 853 854 856 856 857 857 858 859 860 861
792 817 825 810 805 801 790 799 796 793 800 800 801 806 810 818 824 827 831 832 833 834 835 836 837 839 841 842 844 846 847 849 850 850 851 852 853 854 856 856 856 857 857 857 858 859 859 859 860
803 816 805 785 786 791 788 794 796 803 806 806 807 809 815 820 823 826 830 831 833 833 834 836 837 838 841 843 845 846 848 850 851 852 852 853 854 855 857 857 858 858 858 858 860 860 860 860 860
795 806 788 780 779 781 790 797 792 805 815 803 808 810 815 820 824 826 828 827 827 832 835 836 837 838 840 842 844 846 848 850 851 853 854 854 855 856 856 857 858 860 861 861 861 862 861 861 861
799 786 781 779 778 783 794 791 800 800 800 797 804 806 813 819 822 825 827 829 831 833 834 836 838 839 840 842 843 845 847 850 851 852 854 855 856 857 858 858 860 862 862 862 862 862 862 862 862
796 787 781 782 782 783 786 795 799 801 797 800 806 810 813 817 821 825 826 827 830 833 834 836 837 838 840 842 843 845 847 849 851 852 853 854 855 856 858 859 859 861 863 863 863 863 863 862 862
782 782 786 787 789 785 796 800 798 803 799 803 808 811 814 816 819 825 828 829 830 831 833 835 837 838 840 841 844 845 847 849 851 852 852 853 855 856 857 858 859 859 860 862 863 862 862 861 861
786 801 793 793 794 798 792 812 810 800 801 805 806 810 812 814 818 819 821 824 826 829 831 833 836 839 840 842 844 846 848 850 851 852 852 852 853 855 856 857 858 858 858 859 860 860 860 860 860
797 801 821 799 797 796 801 827 808 801 805 810 807 806 809 812 814 816 819 822 825 829 830 833 836 838 840 841 843 845 848 849 850 851 851 851 852 853 854 855 856 858 857 857 857 858 859 859 859
804 826 817 811 794 799 807 819 805 801 806 810 809 807 806 807 810 812 815 818 821 824 828 830 834 836 838 841 843 845 846 847 848 850 850 851 852 853 854 854 855 856 856 855 856 856 857 857 858
825 821 812 814 801 802 813 812 803 801 805 807 808 807 807 807 806 808 812 814 819 822 825 829 833 835 838 841 843 844 844 846 847 848 850 852 853 854 854 854 854 854 854 855 855 855 856 857 858
796 804 808 799 791 803 813 809 804 801 805 807 807 808 806 803 801 804 807 810 815 820 823 827 831 833 837 838 840 842 842 843 846 847 848 850 852 853 853 853 853 853 853 853 854 854 854 855 856
785 802 805 795 792 802 812 814 801 799 798 799 802 804 803 803 802 802 805 807 810 813 819 826 829 831 834 836 838 841 843 843 844 846 847 848 849 850 850 850 850 851 851 851 852 852 852 852 853
789 802 801 799 802 802 810 823 815 800 798 798 796 796 799 803 808 807 804 804 810 813 816 821 825 828 831 835 838 840 842 842 843 843 844 845 846 847 848 849 849 849 850 850 851 851 851 850 850
797 773 779 801 816 843 809 859 823 805 801 797 792 791 797 805 809 808 812 813 809 808 817 820 822 826 830 833 835 837 838 840 840 840 841 842 843 844 845 847 848 849 849 849 849 849 849 849 848
787 768 778 797 814 822 821 840 821 803 810 796 787 786 792 801 796 784 797 802 804 810 811 817 822 824 826 828 830 833 835 837 838 839 840 840 841 842 843 845 846 847 847 847 847 847 847 848 847
766 778 799 818 828 845 819 830 826 816 791 785 781 782 784 787 789 784 785 790 801 803 807 811 817 821 822 827 829 830 831 833 834 835 836 836 837 839 840 842 844 844 844 844 843 843 843 844 844
782 813 852 845 858 853 827 821 814 788 777 774 775 775 776 781 787 783 788 788 791 800 807 809 811 816 821 824 825 828 829 830 829 831 832 834 834 836 836 837 839 841 843 843 842 841 840 840 840
787 805 849 851 863 842 816 822 812 784 769 765 767 773 778 780 773 776 782 789 789 795 802 805 803 809 819 828 835 836 832 829 828 827 828 830 832 832 835 835 836 837 838 839 838 836 837 834 835
789 810 797 840 847 849 842 808 792 786 783 778 778 778 778 776 771 779 778 779 782 789 792 799 812 819 822 830 831 830 832 831 828 829 828 826 828 830 830 830 828 828 829 829 829 830 829 831 831
774 781 816 839 847 848 839 825 827 803 795 785 785 783 780 776 772 776 775 776 778 783 788 796 801 810 806 811 819 822 825 825 825 826 821 821 824 826 825 824 823 823 822 818 817 819 822 825 825
787 796 812 821 836 856 859 839 797 794 790 789 786 781 780 777 774 770 770 775 778 781 786 789 788 795 799 799 803 814 824 820 820 820 817 816 821 822 821 820 818 817 816 815 811 813 816 818 818
768 780 799 829 827 842 836 830 776 785 781 780 784 781 775 774 774 775 775 778 780 782 784 786 793 799 798 797 808 816 818 813 811 812 811 812 814 816 817 816 814 814 813 810 808 807 814 809 810